Regional Weather Roundup
Issued by NWS

Home | Current Version | Previous Version | Graphics & Text | Print | Product List | Glossary On
Versions: 1 2 3 4 5 6 7 8 9 10 11 12 13 14 15 16 17 18 19 20 21 22 23 24 25 26 27 28 29 30 31 32 33 34 35 36 37 38 39 40 41 42 43 44 45 46 47 48 49 50
000
ASUS43 KLMK 240502
RWRKY
KENTUCKY REGIONAL WEATHER ROUNDUP
NATIONAL WEATHER SERVICE LOUISVILLE KY
100 AM EDT WED AUG 24 2016

NOTE "FAIR" INDICATES FEW OR NO CLOUDS BELOW 12,000 FEET
WITH NO SIGNIFICANT WEATHER AND/OR OBSTRUCTIONS TO VISIBILITY.

KYZ001>023-026-027-061>063-070>075-240600-
WESTERN AND SOUTH CENTRAL KENTUCKY

CITY           SKY/WX    TMP DP  RH WIND       PRES   REMARKS
PADUCAH        CLEAR     74  71  91 SE5       30.14S
HENDERSON      PTCLDY    73  66  78 SE7       30.14F
OWENSBORO      CLEAR     73  67  81 SE6       30.17F
HOPKINSVILLE   CLEAR     76  73  91 SE6       30.17F
BOWLING GREEN  PTCLDY    73  68  84 CALM      30.19S
GLASGOW        CLEAR     68  68 100 CALM      30.20F
$$

KYZ024-025-028>034-038-045-046-053-240600-
NORTH CENTRAL KENTUCKY

CITY           SKY/WX    TMP DP  RH WIND       PRES   REMARKS
LOUISVILLE/SDF MOCLDY    74  65  73 SE5       30.18F
LOUISVILLE/LOU MOCLDY    74  63  68 CALM      30.19F
FORT KNOX      CLEAR     71  67  87 E2        30.18F
$$

KYZ035>037-039>044-047>052-055>060-089>105-240600-
NORTHEAST KENTUCKY

CITY           SKY/WX    TMP DP  RH WIND       PRES   REMARKS
LEXINGTON      PTCLDY    70  62  76 SE6       30.23S
COVINGTON      MOCLDY    68  61  78 S3        30.21S
FRANKFORT      MOCLDY    68  64  87 CALM      30.21S
$$

KYZ054-064>069-076>088-106>120-240600-
SOUTHEAST KENTUCKY

CITY           SKY/WX    TMP DP  RH WIND       PRES   REMARKS
JACKSON        MOCLDY    68  61  78 SE3       30.26S
LONDON         CLEAR     67  63  87 CALM      30.25F
SOMERSET       PTCLDY    64  64 100 CALM      30.25S
MIDDLESBORO    CLEAR     64  64  98 CALM      30.28S
MONTICELLO     CLEAR    N/A N/A N/A W9        30.25F
$$





USA.gov is the U.S. government's official web portal to all federal, state and local government web resources and services.